Regional Weather Roundup
Issued by NWS Newport/Morehead, NC

Current Version | Previous Version | Text Only | Print | Product List | Glossary Off
Versions: 1 2 3 4 5 6 7 8 9 10 11 12 13 14 15 16 17 18 19 20 21 22 23 24 25 26 27 28 29 30 31 32 33 34 35 36 37 38 39 40 41 42 43 44 45 46 47 48 49 50
000 ASUS42 KMHX 060025 RWRMHX WEATHER ROUNDUP FOR EASTERN NORTH CAROLINA NATIONAL WEATHER SERVICE NEWPORT/MOREHEAD CITY NC 800 PM EDT SUN JUL 05 2015 NOTE: "FAIR" INDICATES FEW OR NO CLOUDS BELOW 12,000 FEET WITH NO SIGNIFICANT WEATHER AND/OR OBSTRUCTIONS TO VISIBILITY NCZ015>017-031-032-045>047-102-103-060100- NORTH COAST CITY SKY/WX TMP DP RH WIND PRES REMARKS EDENTON N/A 83 73 71 S9 30.07S ELIZABETH CITY PTCLDY 81 76 84 E8 30.08R KITTY HAWK PTCLDY 83 72 67 S5 30.09R MANTEO PTCLDY 82 74 76 S14 30.10R $$ NCZ045>047-081-094-103-104-060100- CENTRAL COAST CITY SKY/WX TMP DP RH WIND PRES REMARKS FRISCO CLEAR 78 74 87 SW10 30.11S SWANQUARTER N/A 82 N/A N/A S12G17 30.06R $$ NCZ095-097-098-100-101-060100- SOUTHERN COAST CITY SKY/WX TMP DP RH WIND PRES REMARKS BEAUFORT CLEAR 80 75 84 S14 30.11R CEDAR ISLAND N/A 82 N/A N/A S9 30.15S JACKSONVILLE CLEAR 81 73 76 S8 30.10R PINEY ISLAND CLEAR N/A N/A N/A S10 30.10R WILMINGTON CLEAR 82 71 69 SW15G21 30.11R $$ NCZ011>013-027>030-043-044-078>080-089-090>093-098-060100- COASTAL PLAIN CITY SKY/WX TMP DP RH WIND PRES REMARKS AHOSKIE MOCLDY N/A N/A N/A N5 30.09S CLINTON PTCLDY 84 75 73 S7 30.09R ELIZABETHTOWN LGT RAIN 80 72 76 S5 30.11R GOLDSBORO PTCLDY 86 72 62 S8 30.06R GREENVILLE CLEAR 86 73 66 S9 30.08S HAVELOCK PTCLDY 80 72 76 S8 30.13R KENANSVILLE CLEAR 84 69 61 CALM 30.10R KINSTON CLEAR 86 70 58 S8 30.09R NEW BERN CLEAR 83 71 67 S9 30.11R RICHLANDS CLEAR 82 70 65 S9 30.11R ROCKY MOUNT CLOUDY 78 74 87 N3 30.07R WASHINGTON CLEAR 83 72 69 S5 30.09R WHITEVILLE CLOUDY 83 72 69 SW8 30.11R $$ AMZ130-135-150-152-154-156-158-170-250-252-270-ANZ085-086-088-633-658-670-060100- MARINE OBSERVATIONS STATION/POSITION TIME TEMP WIND PRES WAVE SWELL AIR SEA DIR/SP/G HT/PER HT/PER (UTC) (F) (DEG/KT/KT) (MB) (FT/S) (FT/S) CHESAPEAKE LIGHT 0000 77 100/ 10/ 11 1020.0 64 E VA BEACH 2350 78 78 140/ 6/ 8 1019.4 3/ 6 3/ 6 DUCK 0000 83 77 180/ 10/ 12 N/A 2 E DUCK 2311 79 N/A 2/ 8 OREGON INLET 0000 81 83 180/ 14/ 16 1019.2 13E OREGON INLT 0000 78 N/A 3/14 2/14 HATTERAS CG 0000 80 81 180/ 5/ 10 1019.4 DIAMOND BUOY 2350 81 81 210/ 14/ 16 1019.7 3/ 9 2/ 9 CAPE LOOKOUT 0000 81 200/ 11/ 14 1019.4 BEAUFORT LAB 0000 81 83 200/ 11/ 18 1019.0 30 SE NEW RVR IN NOT AVBL 27 SE WRIGHTSVLE 0000 80 230/ 14/ 16 N/A 5 SE WRIGHTSVLE 2308 80 79 210/ 16/ 19 1018.8 225 S CAPE HAT 2350 81 80 180/ 10/ 10 1021.9 4/ 9 3/ 9 41 SE CHARLESTON 2350 82 83 200/ 16/ 19 1019.5 3/ 8 2/ 8 $$

USA.gov is the U.S. government's official web portal to all federal, state and local government web resources and services.